"Pseudo-MPEC" for P11EckJ

Created 2023 Apr 2 17:22:10 UT using Find_Orb

Click here for an explanation of pseudo-MPECs

 
 Astrometry: 
     P11EckJ* C2023 03 27%QAstrometrya/3predacted;Hx6(oncwclickobLOlDI@FNN/WdF51
     P11EckJ  C2023 03 27d2iosS\CU*Akf69Phclheren8^mb$9j-Iqg4:6-mr+HVLnC=-M+pF51
     P11EckJ  C2023 03 27?ycWl%5`oB/q9P_T@Gfor!8RJHXEuexplanation%LvEZ98fg4O_F51

Station data:
(F51) Pan-STARRS 1, Haleakala  (N20.707234 W156.255910)  US/Hawaii.
   Observers J. Bulger, T. Lowe, A. Schultz, M. Willman. Measurers K.
   Chambers, S. Chastel, T. de Boer, L. Denneau, J. Fairlamb, H. Flewelling,
   M. Huber, C.-C. Lin, E. Magnier, Y. Ramanjooloo, R. Wainscoat, R. Weryk.
   1.8-m Ritchey-Chrétien + CCD.

Orbital elements:  P11EckJ
   Perihelion 2023 Apr 12.77017 +/- 34.9 TT = 18:29:02 (JD 2460047.27017)
Epoch 2023 Mar 27.0 TT = JDT 2460030.5   Earth MOID: 0.0239   Ma: 0.0675
M 349.43426119 +/- 17               (J2000 ecliptic)             AutoNEOCP
n   0.63003162 +/- 0.342            Peri.    2.05171 +/- 90
a   1.34760045 +/- 0.488            Node   200.89527 +/- 60
e   0.2381106 +/- 0.244             Incl.    2.59989 +/- 3.2
P   1.56/571.39d           H 27.31  G  0.15   U 12.0  SR
q 1.02672240 +/- 0.167    Q 1.66847850 +/- 47
From 3 observations 2023 Mar. 27 (51.6 min); mean residual 0".11
Residuals in arcseconds: 
230327 F51  .13+  .07-    230327 F51  .20-  .11+    230327 F51  .07+  .04-    

Ephemerides (geocentric):
Date (UTC) HH   RA             Dec           delta  r     elong  mag " sig PA
---- --------  ------------   ------------  ------ ------ -----  --- --------
2023 04 02 17  12 24 33.980   -16 35 49.83  .03137 1.0301 167.2 20.7  50d 169
2023 04 02 18  12 25 06.777   -16 36 13.36  .03132 1.0301 167.3 20.6  50d 169
2023 04 02 19  12 25 39.677   -16 36 36.59  .03128 1.0300 167.3 20.6  50d 169
2023 04 02 20  12 26 12.678   -16 36 59.50  .03123 1.0300 167.4 20.6  50d 169
2023 04 02 21  12 26 45.781   -16 37 22.11  .03118 1.0300 167.4 20.6  50d 169
2023 04 02 22  12 27 18.985   -16 37 44.40  .03114 1.0299 167.4 20.6  50d 169
2023 04 02 23  12 27 52.291   -16 38 06.38  .03109 1.0299 167.5 20.6  50d 169
2023 04 03 00  12 28 25.699   -16 38 28.03  .03105 1.0299 167.5 20.6  50d 169
2023 04 03 01  12 28 59.208   -16 38 49.36  .03100 1.0299 167.6 20.6  50d 169
2023 04 03 02  12 29 32.818   -16 39 10.37  .03096 1.0298 167.6 20.6  50d 169
2023 04 03 03  12 30 06.530   -16 39 31.04  .03091 1.0298 167.7 20.6  50d 169
2023 04 03 04  12 30 40.343   -16 39 51.39  .03087 1.0298 167.7 20.6  50d 169
2023 04 03 05  12 31 14.257   -16 40 11.39  .03083 1.0298 167.8 20.6  50d 169
2023 04 03 06  12 31 48.272   -16 40 31.06  .03078 1.0297 167.8 20.6  50d 169
2023 04 03 07  12 32 22.389   -16 40 50.38  .03074 1.0297 167.8 20.6  50d 169
2023 04 03 08  12 32 56.606   -16 41 09.36  .03069 1.0297 167.9 20.6  50d 169
2023 04 03 09  12 33 30.925   -16 41 27.99  .03065 1.0296 167.9 20.6  50d 169
2023 04 03 10  12 34 05.344   -16 41 46.26  .03061 1.0296 168.0 20.6  51d 169
2023 04 03 11  12 34 39.864   -16 42 04.18  .03056 1.0296 168.0 20.6  51d 169
2023 04 03 12  12 35 14.485   -16 42 21.74  .03052 1.0296 168.0 20.6  51d 169
2023 04 03 13  12 35 49.206   -16 42 38.93  .03048 1.0295 168.1 20.6  51d 169
2023 04 03 14  12 36 24.027   -16 42 55.76  .03044 1.0295 168.1 20.6  51d 169
2023 04 03 15  12 36 58.949   -16 43 12.22  .03039 1.0295 168.2 20.5  51d 169
2023 04 03 16  12 37 33.971   -16 43 28.31  .03035 1.0295 168.2 20.5  51d 169
2023 04 03 17  12 38 09.093   -16 43 44.02  .03031 1.0294 168.2 20.5  51d 169
2023 04 03 18  12 38 44.314   -16 43 59.35  .03027 1.0294 168.3 20.5  51d 169
2023 04 03 19  12 39 19.636   -16 44 14.29  .03023 1.0294 168.3 20.5  51d 169
2023 04 03 20  12 39 55.057   -16 44 28.85  .03019 1.0294 168.3 20.5  51d 169
2023 04 03 21  12 40 30.577   -16 44 43.02  .03014 1.0293 168.4 20.5  51d 169
2023 04 03 22  12 41 06.196   -16 44 56.80  .03010 1.0293 168.4 20.5  51d 169
2023 04 03 23  12 41 41.915   -16 45 10.17  .03006 1.0293 168.4 20.5  51d 169
2023 04 04 00  12 42 17.732   -16 45 23.15  .03002 1.0293 168.5 20.5  51d 169
2023 04 04 01  12 42 53.648   -16 45 35.73  .02998 1.0292 168.5 20.5  51d 169
2023 04 04 02  12 43 29.662   -16 45 47.89  .02994 1.0292 168.5 20.5  51d 169
2023 04 04 03  12 44 05.775   -16 45 59.65  .02990 1.0292 168.6 20.5  51d 169
2023 04 04 04  12 44 41.986   -16 46 10.99  .02986 1.0292 168.6 20.5  51d 169
2023 04 04 05  12 45 18.294   -16 46 21.92  .02982 1.0291 168.6 20.5  51d 169
2023 04 04 06  12 45 54.700   -16 46 32.42  .02979 1.0291 168.6 20.5  51d 169
2023 04 04 07  12 46 31.204   -16 46 42.50  .02975 1.0291 168.7 20.5  51d 169
2023 04 04 08  12 47 07.804   -16 46 52.16  .02971 1.0291 168.7 20.5  51d 169
2023 04 04 09  12 47 44.502   -16 47 01.38  .02967 1.0290 168.7 20.5  52d 170
2023 04 04 10  12 48 21.296   -16 47 10.16  .02963 1.0290 168.7 20.5  52d 170
2023 04 04 11  12 48 58.186   -16 47 18.51  .02959 1.0290 168.7 20.5  52d 170
2023 04 04 12  12 49 35.173   -16 47 26.42  .02956 1.0290 168.8 20.5  52d 170
2023 04 04 13  12 50 12.255   -16 47 33.88  .02952 1.0290 168.8 20.5  52d 170
2023 04 04 14  12 50 49.433   -16 47 40.90  .02948 1.0289 168.8 20.5  52d 170
2023 04 04 15  12 51 26.706   -16 47 47.46  .02944 1.0289 168.8 20.5  52d 170
2023 04 04 16  12 52 04.074   -16 47 53.57  .02941 1.0289 168.8 20.4  52d 170